This is the latest recevied weather packets stored in our database for station/object R1CBW-13. If no packets are shown the sender has not sent any weather packets the latest 1 day(s).
| Time | Temp. | Humidity | Pressure | Rain* | Wind** | Luminosity | Snow |
|---|---|---|---|---|---|---|---|
| 1778054190 | 8.33° C | 47% | 1010.4 hPa | 0 mm | - | - | - |
| 1778054130 | 8.33° C | 46% | 1010.3 hPa | 0 mm | - | - | - |
| 1778054070 | 8.33° C | 47% | 1010.2 hPa | 0 mm | - | - | - |
| 1778054010 | 7.78° C | 47% | 1010.3 hPa | 0 mm | - | - | - |
| 1778053590 | 8.33° C | 47% | 1010.1 hPa | 0 mm | - | - | - |
| 1778053109 | 7.22° C | 49% | 1010.1 hPa | 0 mm | - | - | - |
| 1778052749 | 7.78° C | 49% | 1010 hPa | 0 mm | - | - | - |
| 1778052689 | 7.78° C | 48% | 1010.1 hPa | 0 mm | - | - | - |
| 1778052509 | 7.78° C | 48% | 1010 hPa | 0 mm | - | - | - |
| 1778052209 | 7.22° C | 49% | 1010 hPa | 0 mm | - | - | - |
| 1778051909 | 7.78° C | 50% | 1009.9 hPa | 0 mm | - | - | - |
| 1778051849 | 8.33° C | 50% | 1009.9 hPa | 0 mm | - | - | - |
| 1778051549 | 6.67° C | 52% | 1009.9 hPa | 0 mm | - | - | - |
| 1778051489 | 6.67° C | 51% | 1009.9 hPa | 0 mm | - | - | - |
| 1778051429 | 7.22° C | 51% | 1010 hPa | 0 mm | - | - | - |
| 1778051369 | 6.67° C | 51% | 1009.9 hPa | 0 mm | - | - | - |
| 1778051249 | 7.22° C | 51% | 1009.9 hPa | 0 mm | - | - | - |
| 1778051189 | 6.67° C | 51% | 1009.8 hPa | 0 mm | - | - | - |
| 1778051069 | 6.67° C | 52% | 1009.9 hPa | 0 mm | - | - | - |
| 1778050889 | 6.67° C | 52% | 1009.9 hPa | 0 mm | - | - | - |
| 1778050829 | 6.67° C | 52% | 1009.8 hPa | 0 mm | - | - | - |
| 1778050709 | 7.78° C | 50% | 1009.8 hPa | 0 mm | - | - | - |
| 1778050649 | 7.22° C | 51% | 1009.7 hPa | 0 mm | - | - | - |
| 1778050589 | 7.22° C | 51% | 1009.7 hPa | 0 mm | - | - | - |
| 1778050529 | 7.22° C | 52% | 1009.7 hPa | 0 mm | - | - | - |
* Rain latest hour (hover to see other rain measurements)
** Current wind speed in m/s (hover to see current wind gust speed)